| time (UTC) | temp F | wind direction | speed knots | gust knots | rain 1hr in | rain 24hr in | rain mn in | humidity % | barometer mb |
| 20260505193102 | 54 | 270 | 11.3 | 0.0 | 0.00 | 0.08 | 0.08 | 39 | 975.5 |
| 20260505191548 | 54 | 268 | 10.4 | 0.0 | 0.00 | 0.08 | 0.08 | 39 | 975.5 |
| 20260505190115 | 54 | 266 | 10.4 | 0.0 | 0.00 | 0.08 | 0.08 | 39 | 975.5 |
| 20260505184548 | 54 | 268 | 10.4 | 0.0 | 0.00 | 0.08 | 0.08 | 44 | 975.9 |
| 20260505183111 | 54 | 267 | 9.6 | 0.0 | 0.00 | 0.08 | 0.08 | 43 | 975.1 |
| 20260505181548 | 53 | 265 | 8.7 | 0.0 | 0.00 | 0.08 | 0.08 | 43 | 975.2 |
| 20260505180122 | 52 | 266 | 8.7 | 0.0 | 0.00 | 0.08 | 0.08 | 43 | 975.2 |
| 20260505174548 | 53 | 266 | 9.6 | 0.0 | 0.00 | 0.08 | 0.08 | 48 | 974.6 |
| 20260505173104 | 50 | 266 | 7.0 | 0.0 | 0.00 | 0.08 | 0.08 | 47 | 973.9 |
| 20260505171549 | 50 | 273 | 7.8 | 0.0 | 0.00 | 0.08 | 0.08 | 47 | 973.9 |
| 20260505170120 | 52 | 280 | 8.7 | 0.0 | 0.00 | 0.08 | 0.08 | 47 | 973.9 |
| 20260505164549 | 51 | 278 | 9.6 | 0.0 | 0.00 | 0.08 | 0.08 | 54 | 974.7 |
| 20260505163107 | 51 | 278 | 9.6 | 0.0 | 0.00 | 0.08 | 0.08 | 58 | 973.0 |
| 20260505161548 | 50 | 282 | 9.6 | 0.0 | 0.00 | 0.08 | 0.08 | 58 | 973.0 |
| 20260505160122 | 49 | 278 | 9.6 | 0.0 | 0.00 | 0.08 | 0.08 | 58 | 973.0 |
| 20260505153110 | 48 | 276 | 10.4 | 0.0 | 0.00 | 0.08 | 0.08 | 55 | 973.8 |
| 20260505151548 | 49 | 280 | 10.4 | 0.0 | 0.00 | 0.09 | 0.09 | 55 | 973.7 |
| 20260505150130 | 48 | 285 | 10.4 | 0.0 | 0.00 | 0.09 | 0.09 | 55 | 973.7 |
| 20260505140130 | 48 | 294 | 12.2 | 0.0 | 0.00 | 0.01 | 0.01 | 60 | 973.6 |
| 20260505130121 | 49 | 301 | 7.8 | 0.0 | 0.00 | 0.00 | 0.00 | 71 | 973.4 |
| 20260505124547 | 50 | 301 | 8.7 | 0.0 | 0.00 | 0.01 | 0.01 | 72 | 972.5 |
| 20260505123107 | 49 | 298 | 9.6 | 0.0 | 0.00 | 0.01 | 0.01 | 73 | 971.0 |
| 20260505121548 | 48 | 285 | 9.6 | 0.0 | 0.00 | 0.01 | 0.01 | 73 | 971.0 |
| 20260505120135 | 48 | 282 | 11.3 | 0.0 | 0.00 | 0.01 | 0.01 | 73 | 971.0 |
| 20260505114548 | 48 | 280 | 9.6 | 0.0 | 0.00 | 0.00 | 0.00 | 72 | 971.1 |
| 20260505113105 | 48 | 282 | 7.8 | 0.0 | 0.00 | 0.00 | 0.00 | 68 | 969.9 |
| 20260505111548 | 48 | 271 | 7.8 | 0.0 | 0.00 | 0.01 | 0.01 | 68 | 969.9 |
| 20260505110126 | 48 | 261 | 7.0 | 0.0 | 0.00 | 0.01 | 0.01 | 68 | 969.9 |
| 20260505101547 | 50 | 266 | 8.7 | 0.0 | 0.00 | 0.00 | 0.00 | 66 | 968.6 |
| 20260505100125 | 50 | 269 | 8.7 | 0.0 | 0.00 | 0.00 | 0.00 | 66 | 968.6 |
| 20260505094547 | 50 | 260 | 5.2 | 0.0 | 0.00 | 0.00 | 0.00 | 77 | 968.7 |
| 20260505093110 | 51 | 256 | 5.2 | 0.0 | 0.00 | 0.00 | 0.00 | 78 | 968.6 |
| 20260505091548 | 51 | 266 | 9.6 | 0.0 | 0.00 | 0.00 | 0.00 | 78 | 968.5 |
| 20260505090128 | 50 | 257 | 7.0 | 0.0 | 0.00 | 0.00 | 0.00 | 78 | 968.5 |
| 20260505084545 | 50 | 278 | 9.6 | 0.0 | 0.00 | 0.00 | 0.00 | 74 | 968.6 |
| 20260505083106 | 51 | 275 | 9.6 | 0.0 | 0.00 | 0.00 | 0.00 | 72 | 967.8 |
| 20260505081547 | 51 | 268 | 9.6 | 0.0 | 0.00 | 0.00 | 0.00 | 72 | 967.8 |
| 20260505080119 | 52 | 261 | 10.4 | 0.0 | 0.00 | 0.00 | 0.00 | 76 | 968.3 |
| 20260505074548 | 53 | 253 | 10.4 | 0.0 | 0.00 | 0.00 | 0.00 | 82 | 967.7 |
| 20260505073108 | 53 | 237 | 8.7 | 0.0 | 0.00 | 0.00 | 0.00 | 82 | 967.7 |
| 20260505071548 | 54 | 241 | 10.4 | 0.0 | 0.00 | 0.00 | 0.00 | 82 | 967.7 |
| 20260505070121 | 55 | 236 | 9.6 | 0.0 | 0.00 | 0.00 | 0.00 | 82 | 967.7 |
| 20260505064547 | 55 | 262 | 9.6 | 0.0 | 0.00 | 0.00 | 0.00 | 82 | 968.2 |
| 20260505063104 | 56 | 259 | 10.4 | 0.0 | 0.00 | 0.00 | 0.00 | 82 | 967.6 |
| 20260505061548 | 56 | 248 | 11.3 | 0.0 | 0.00 | 0.00 | 0.00 | 82 | 967.6 |
| 20260505060133 | 57 | 250 | 10.4 | 0.0 | 0.00 | 0.00 | 0.00 | 82 | 967.6 |
| 20260505054548 | 57 | 257 | 11.3 | 0.0 | 0.00 | 0.00 | 0.00 | 78 | 968.4 |
| 20260505053111 | 57 | 257 | 10.4 | 0.0 | 0.00 | 0.00 | 0.00 | 71 | 967.6 |
| 20260505051547 | 57 | 213 | 7.8 | 0.0 | 0.00 | 0.00 | 0.00 | 71 | 967.6 |
| 20260505050120 | 59 | 220 | 9.6 | 0.0 | 0.00 | 0.00 | 0.00 | 71 | 967.6 |
| 20260505041548 | 59 | 205 | 12.2 | 0.0 | 0.00 | 0.00 | 0.00 | 77 | 967.5 |
| 20260505040125 | 59 | 210 | 8.7 | 0.0 | 0.00 | 0.00 | 0.00 | 77 | 967.5 |
| 20260505034544 | 59 | 207 | 8.7 | 0.0 | 0.00 | 0.00 | 0.00 | 73 | 967.1 |
| 20260505033107 | 60 | 190 | 11.3 | 0.0 | 0.00 | 0.00 | 0.00 | 66 | 967.1 |
| 20260505031547 | 60 | 186 | 13.0 | 0.0 | 0.00 | 0.00 | 0.00 | 66 | 967.1 |
| 20260505030121 | 60 | 195 | 16.5 | 0.0 | 0.00 | 0.00 | 0.00 | 66 | 967.1 |
| 20260505024548 | 60 | 201 | 18.2 | 0.0 | 0.00 | 0.00 | 0.00 | 69 | 967.9 |
| 20260505023107 | 61 | 205 | 16.5 | 0.0 | 0.00 | 0.00 | 0.00 | 51 | 967.8 |
| 20260505021546 | 63 | 215 | 17.4 | 0.0 | 0.00 | 0.00 | 0.00 | 51 | 967.8 |
| 20260505020120 | 64 | 219 | 17.4 | 0.0 | 0.00 | 0.00 | 0.00 | 51 | 967.8 |
| 20260505014547 | 63 | 210 | 13.9 | 0.0 | 0.00 | 0.00 | 0.00 | 69 | 966.9 |
| 20260505013105 | 64 | 217 | 12.2 | 0.0 | 0.00 | 0.00 | 0.00 | 69 | 966.9 |
| 20260505011548 | 63 | 210 | 14.8 | 0.0 | 0.00 | 0.00 | 0.00 | 69 | 966.8 |
| 20260505010117 | 63 | 209 | 13.9 | 0.0 | 0.00 | 0.00 | 0.00 | 69 | 966.8 |
| 20260505004547 | 63 | 208 | 14.8 | 0.0 | 0.00 | 0.00 | 0.00 | 42 | 967.2 |
| 20260505003103 | 66 | 214 | 13.0 | 0.0 | 0.00 | 0.00 | 0.00 | 46 | 968.0 |
| 20260505001546 | 67 | 207 | 11.3 | 0.0 | 0.00 | 0.00 | 0.00 | 46 | 968.0 |
| 20260505000126 | 68 | 211 | 8.7 | 0.0 | 0.00 | 0.00 | 0.00 | 46 | 968.0 |
| 20260504234547 | 69 | 229 | 7.8 | 0.0 | 0.00 | 0.00 | 0.00 | 39 | 967.6 |
| 20260504233105 | 70 | 237 | 9.6 | 0.0 | 0.00 | 0.00 | 0.00 | 37 | 967.7 |
| 20260504231547 | 70 | 250 | 9.6 | 0.0 | 0.00 | 0.00 | 0.00 | 37 | 967.7 |
| 20260504230113 | 71 | 255 | 11.3 | 0.0 | 0.00 | 0.00 | 0.00 | 37 | 967.7 |
| 20260504224547 | 71 | 259 | 13.0 | 0.0 | 0.00 | 0.00 | 0.00 | 38 | 967.2 |
| 20260504223107 | 72 | 255 | 14.8 | 0.0 | 0.00 | 0.00 | 0.00 | 37 | 967.5 |
| 20260504221547 | 72 | 257 | 14.8 | 0.0 | 0.00 | 0.00 | 0.00 | 37 | 967.5 |
| 20260504220124 | 73 | 252 | 15.6 | 0.0 | 0.00 | 0.00 | 0.00 | 37 | 967.5 |
| 20260504214545 | 73 | 249 | 15.6 | 0.0 | 0.00 | 0.00 | 0.00 | 35 | 968.7 |
| 20260504213108 | 73 | 256 | 14.8 | 0.0 | 0.00 | 0.00 | 0.00 | 35 | 968.7 |
| 20260504211546 | 73 | 254 | 15.6 | 0.0 | 0.00 | 0.00 | 0.00 | 37 | 967.7 |
| 20260504210120 | 73 | 248 | 15.6 | 0.0 | 0.00 | 0.00 | 0.00 | 37 | 967.7 |
| 20260504204551 | 73 | 246 | 16.5 | 0.0 | 0.00 | 0.00 | 0.00 | 37 | 968.3 |
| 20260504203102 | 73 | 241 | 15.6 | 0.0 | 0.00 | 0.00 | 0.00 | 37 | 968.3 |
| 20260504201553 | 73 | 235 | 15.6 | 0.0 | 0.00 | 0.00 | 0.00 | 37 | 968.3 |
| 20260504200117 | 73 | 233 | 16.5 | 0.0 | 0.00 | 0.00 | 0.00 | 37 | 967.7 |
| 20260504194553 | 73 | 227 | 17.4 | 0.0 | 0.00 | 0.00 | 0.00 | 41 | 968.9 |